ITUPSAT1

Last updated on Sat Apr 04 2026 00:03:13 GMT+0000 (Coordinated Universal Time)

1 35935U 09051E 26093.62397163 .00001618 00000+0 34472-3 0 9995 2 35935 98.4096 359.2665 0008622 106.5199 253.6949 14.60324781877857
UTC large
Height (km)
Speed (km/s)
/
Latitude / Longitude
Inclination (degrees)
Orbital Period (minutes)
Azimuth
Elevation
Range (km)
Doppler Factor

Next 0 passes for location: London (51.5072 / 0.1276)

Sorry there are no passes over London.